Погода в Арике

Россия / Кабардино-Балкарская Республика     43°34′47″N   44°07′15″E
темп.,
°C
ветер,
м/с
пор.,
м/с
влажн.,
%
обл.,
%
осадки,
мм/ч
давл.,
гПа
погр.,
м
25 февраля, чт
чт2500:00−11с1291100 0.0 1039129
03:00−12ссз119298 0.1 1037119
06:00−11св119099 0.0 1037181
09:00−9св118699 0.0 1036246
12:00−6св117875 0.0 1034344
15:00−3св117543 0.0 1032305
18:00−5вюв018414 0.0 103321
21:00−2ю337638 0.0 103348
26 февраля, пт
пт2600:00−1ю3465100 0.0 103144
03:00−1ююз2371100 0.0 103024
06:00−1зюз1175100 0.0 103021
09:00+1ююз2379100 0.0 102873
12:00+5ю2480100 0.0 1026170
15:00+6ююв1275100 0.0 1025142
18:00+3ююз3473100 0.0 102639
21:00+2ююз337283 0.0 102629
27 февраля, сб
сб2700:00+2ююз237119 0.0 102425
03:00+2юз226910 0.0 102322
06:00+1ююз12702 0.0 102222
09:00+5ю226714 0.0 102083
12:00+8юв23620 0.0 1018269
15:00+9юв34700 0.0 1016326
18:00+5ююз23790 0.0 101622
21:00+3ююз22781 0.0 101622
28 февраля, вс
вс2800:00+2ю23745 0.0 101525
03:00+1сз35869 0.0 1015109
06:00+2ю229597 0.0 101555
09:00+2в229499 0.3 101472
12:00+2всв2498100 1.1 1014323
15:00+2ссв2598100 2.1 1015335
18:00+1ссв0199100 1.6 101890
21:00+1ююв359599 1.6 1021147
1 марта, пн
пн100:000ююз228787 0.0 102227
03:000ссв129992 0.3 102395
06:000юв0198100 0.6 102573
09:00+1ю2288100 0.8 1025309
12:00+3ссз2370100 0.1 1025860
15:00+4ссв226598 0.1 1025898
18:00+3ссв127596 0.1 102724
21:00+1ссв258198 0.1 1029336